| time (UTC) | temp C | wind direction | speed KPH | gust KPH | rain 1hr cm | rain 24hr cm | rain mn cm | humidity % | barometer mb |
| 20260504210502 | 33 | 0.0 | 0.0 | 0.00 | 0.00 | 0.00 | 42 | 912.0 | |
| 20260504205502 | 33 | 0.0 | 0.0 | 0.00 | 0.00 | 0.00 | 42 | 912.0 | |
| 20260504204502 | 33 | 0.0 | 0.0 | 0.00 | 0.00 | 0.00 | 43 | 911.0 | |
| 20260504203502 | 33 | 0.0 | 0.0 | 0.00 | 0.00 | 0.00 | 42 | 911.0 | |
| 20260504202502 | 33 | 0.0 | 0.0 | 0.00 | 0.00 | 0.00 | 42 | 911.0 | |
| 20260504201502 | 33 | 0.0 | 0.0 | 0.00 | 0.00 | 0.00 | 42 | 911.0 | |
| 20260504200502 | 33 | 0.0 | 0.0 | 0.00 | 0.00 | 0.00 | 42 | 911.0 | |
| 20260504195502 | 33 | 0.0 | 0.0 | 0.00 | 0.00 | 0.00 | 42 | 911.0 | |
| 20260504194502 | 33 | 0.0 | 0.0 | 0.00 | 0.00 | 0.00 | 42 | 911.0 | |
| 20260504193502 | 33 | 0.0 | 0.0 | 0.00 | 0.00 | 0.00 | 42 | 911.0 | |
| 20260504192502 | 33 | 0.0 | 0.0 | 0.00 | 0.00 | 0.00 | 42 | 911.0 | |
| 20260504191502 | 33 | 0.0 | 0.0 | 0.00 | 0.00 | 0.00 | 42 | 911.0 | |
| 20260504190502 | 33 | 0.0 | 0.0 | 0.00 | 0.00 | 0.00 | 42 | 911.0 | |
| 20260504185502 | 33 | 0.0 | 0.0 | 0.00 | 0.00 | 0.00 | 42 | 911.0 | |
| 20260504184502 | 33 | 0.0 | 0.0 | 0.00 | 0.00 | 0.00 | 42 | 912.0 | |
| 20260504183502 | 33 | 0.0 | 0.0 | 0.00 | 0.00 | 0.00 | 42 | 912.0 | |
| 20260504182502 | 33 | 0.0 | 0.0 | 0.00 | 0.00 | 0.00 | 42 | 912.0 | |
| 20260504181502 | 33 | 0.0 | 0.0 | 0.00 | 0.00 | 0.00 | 42 | 912.0 | |
| 20260504180502 | 33 | 0.0 | 0.0 | 0.00 | 0.00 | 0.00 | 42 | 912.0 | |
| 20260504175502 | 33 | 0.0 | 0.0 | 0.00 | 0.00 | 0.00 | 41 | 912.0 | |
| 20260504174502 | 33 | 0.0 | 0.0 | 0.00 | 0.00 | 0.00 | 42 | 912.0 | |
| 20260504173502 | 33 | 0.0 | 0.0 | 0.00 | 0.00 | 0.00 | 42 | 912.0 | |
| 20260504172502 | 33 | 0.0 | 0.0 | 0.00 | 0.00 | 0.00 | 42 | 912.0 | |
| 20260504171502 | 32 | 0.0 | 0.0 | 0.00 | 0.00 | 0.00 | 43 | 912.0 | |
| 20260504170502 | 32 | 0.0 | 0.0 | 0.00 | 0.00 | 0.00 | 44 | 912.0 | |
| 20260504150502 | 32 | 0.0 | 0.0 | 0.00 | 0.00 | 0.00 | 45 | 911.0 | |
| 20260504140502 | 32 | 0.0 | 0.0 | 0.00 | 0.00 | 0.00 | 45 | 911.0 | |
| 20260504130501 | 32 | 0.0 | 0.0 | 0.00 | 0.00 | 0.00 | 44 | 909.0 | |
| 20260504110501 | 32 | 0.0 | 0.0 | 0.00 | 0.00 | 0.00 | 41 | 908.0 | |
| 20260504100501 | 32 | 0.0 | 0.0 | 0.00 | 0.00 | 0.00 | 42 | 908.0 | |
| 20260504081501 | 31 | 0.0 | 0.0 | 0.00 | 0.00 | 0.00 | 47 | 910.0 | |
| 20260504080501 | 31 | 0.0 | 0.0 | 0.00 | 0.00 | 0.00 | 47 | 910.0 | |
| 20260504050501 | 32 | 0.0 | 0.0 | 0.00 | 0.00 | 0.00 | 51 | 913.0 | |
| 20260504045502 | 32 | 0.0 | 0.0 | 0.00 | 0.00 | 0.00 | 51 | 913.0 | |
| 20260504044501 | 32 | 0.0 | 0.0 | 0.00 | 0.00 | 0.00 | 52 | 913.0 | |
| 20260504043501 | 32 | 0.0 | 0.0 | 0.00 | 0.00 | 0.00 | 52 | 913.0 | |
| 20260504042501 | 31 | 0.0 | 0.0 | 0.00 | 0.00 | 0.00 | 53 | 913.0 | |
| 20260504041501 | 31 | 0.0 | 0.0 | 0.00 | 0.00 | 0.00 | 53 | 913.0 | |
| 20260504040501 | 31 | 0.0 | 0.0 | 0.00 | 0.00 | 0.00 | 53 | 913.0 | |
| 20260504035501 | 31 | 0.0 | 0.0 | 0.00 | 0.00 | 0.00 | 53 | 913.0 | |
| 20260504034501 | 31 | 0.0 | 0.0 | 0.00 | 0.00 | 0.00 | 53 | 913.0 | |
| 20260504033501 | 31 | 0.0 | 0.0 | 0.00 | 0.00 | 0.00 | 53 | 913.0 | |
| 20260504032501 | 31 | 0.0 | 0.0 | 0.00 | 0.00 | 0.00 | 54 | 913.0 | |
| 20260504031756 | 30 | 0.0 | 0.0 | 0.00 | 0.00 | 0.00 | 53 | 913.0 | |
| 20260504030249 | 31 | 0.0 | 0.0 | 0.00 | 0.00 | 0.00 | 52 | 913.0 | |
| 20260504025249 | 31 | 0.0 | 0.0 | 0.00 | 0.00 | 0.00 | 51 | 913.0 | |
| 20260504024249 | 31 | 0.0 | 0.0 | 0.00 | 0.00 | 0.00 | 51 | 912.0 | |
| 20260504023249 | 31 | 0.0 | 0.0 | 0.00 | 0.00 | 0.00 | 51 | 912.0 | |
| 20260504022249 | 31 | 0.0 | 0.0 | 0.00 | 0.00 | 0.00 | 50 | 912.0 | |
| 20260504021249 | 31 | 0.0 | 0.0 | 0.00 | 0.00 | 0.00 | 49 | 912.0 | |
| 20260504020249 | 32 | 0.0 | 0.0 | 0.00 | 0.00 | 0.00 | 48 | 912.0 | |
| 20260504015249 | 32 | 0.0 | 0.0 | 0.00 | 0.00 | 0.00 | 48 | 912.0 | |
| 20260504014249 | 32 | 0.0 | 0.0 | 0.00 | 0.00 | 0.00 | 48 | 912.0 | |
| 20260504013249 | 32 | 0.0 | 0.0 | 0.00 | 0.00 | 0.00 | 49 | 912.0 | |
| 20260504012249 | 32 | 0.0 | 0.0 | 0.00 | 0.00 | 0.00 | 48 | 912.0 | |
| 20260504011249 | 32 | 0.0 | 0.0 | 0.00 | 0.00 | 0.00 | 48 | 912.0 | |
| 20260504010249 | 32 | 0.0 | 0.0 | 0.00 | 0.00 | 0.00 | 47 | 912.0 | |
| 20260504005249 | 32 | 0.0 | 0.0 | 0.00 | 0.00 | 0.00 | 47 | 912.0 | |
| 20260504004249 | 32 | 0.0 | 0.0 | 0.00 | 0.00 | 0.00 | 47 | 912.0 | |
| 20260504003249 | 32 | 0.0 | 0.0 | 0.00 | 0.00 | 0.00 | 48 | 912.0 | |
| 20260504002249 | 32 | 0.0 | 0.0 | 0.00 | 0.00 | 0.00 | 49 | 912.0 | |
| 20260504001249 | 32 | 0.0 | 0.0 | 0.00 | 0.00 | 0.00 | 49 | 912.0 | |
| 20260504000249 | 32 | 0.0 | 0.0 | 0.00 | 0.00 | 0.00 | 49 | 912.0 | |
| 20260503235249 | 32 | 0.0 | 0.0 | 0.00 | 0.00 | 0.00 | 49 | 912.0 | |
| 20260503234249 | 32 | 0.0 | 0.0 | 0.00 | 0.00 | 0.00 | 49 | 911.0 | |
| 20260503233249 | 32 | 0.0 | 0.0 | 0.00 | 0.00 | 0.00 | 49 | 911.0 | |
| 20260503232249 | 32 | 0.0 | 0.0 | 0.00 | 0.00 | 0.00 | 48 | 911.0 | |
| 20260503231249 | 32 | 0.0 | 0.0 | 0.00 | 0.00 | 0.00 | 48 | 911.0 | |
| 20260503230249 | 32 | 0.0 | 0.0 | 0.00 | 0.00 | 0.00 | 48 | 911.0 | |
| 20260503225249 | 32 | 0.0 | 0.0 | 0.00 | 0.00 | 0.00 | 48 | 911.0 | |
| 20260503224249 | 32 | 0.0 | 0.0 | 0.00 | 0.00 | 0.00 | 48 | 911.0 | |
| 20260503223249 | 32 | 0.0 | 0.0 | 0.00 | 0.00 | 0.00 | 48 | 911.0 | |
| 20260503222249 | 32 | 0.0 | 0.0 | 0.00 | 0.00 | 0.00 | 48 | 911.0 | |
| 20260503221249 | 32 | 0.0 | 0.0 | 0.00 | 0.00 | 0.00 | 48 | 910.0 | |
| 20260503220249 | 32 | 0.0 | 0.0 | 0.00 | 0.00 | 0.00 | 48 | 910.0 | |
| 20260503215249 | 32 | 0.0 | 0.0 | 0.00 | 0.00 | 0.00 | 48 | 910.0 | |
| 20260503214249 | 32 | 0.0 | 0.0 | 0.00 | 0.00 | 0.00 | 48 | 910.0 | |
| 20260503213249 | 32 | 0.0 | 0.0 | 0.00 | 0.00 | 0.00 | 48 | 910.0 | |
| 20260503212249 | 32 | 0.0 | 0.0 | 0.00 | 0.00 | 0.00 | 48 | 910.0 | |
| 20260503211249 | 32 | 0.0 | 0.0 | 0.00 | 0.00 | 0.00 | 48 | 910.0 |